Wind_Speed
27 26 26 25 25 24 24 24 22 22 22 19 18 15 9 5 8 22 38 37 21 9 5 6 6 7 9 12 13 13 11 12 13 14 13 11 10 10 10 11 12 11 11 13 15 13 11 13 14 12 10 10 10 11 15 18 18 15 11 11 14 10 6 6 6 6 9 10 9 16 20 17 13 11 11 11 10 9 7 5 4 5 6 6 6 7 7
27 26 26 25 24 24 24 23 22 20 19 17 16 10 5 6 8 17 31 30 14 6 6 5 6 8 10 13 15 13 12 12 13 13 10 8 9 9 9 10 11 11 12 11 13 14 12 13 14 12 10 9 10 12 16 17 15 13 9 8 10 9 7 6 6 5 6 9 7 10 17 15 9 9 11 14 15 13 10 7 4 5 9 8 6 6 7
26 26 26 25 24 24 24 22 20 19 17 16 13 7 4 8 6 7 18 23 12 6 6 7 8 10 12 15 14 11 9 10 12 12 12 11 10 9 10 12 13 13 14 13 12 12 11 11 13 12 11 11 12 13 11 13 13 12 15 14 10 9 9 8 8 8 9 10 7 5 9 11 8 9 12 15 18 17 12 7 5 6 9 9 7 5 6
26 26 25 25 25 24 23 22 19 18 16 14 12 9 5 5 6 4 8 11 7 4 6 8 7 8 8 8 9 10 10 10 13 14 12 11 11 11 10 12 13 13 16 16 13 14 16 13 10 10 13 11 10 18 20 13 14 16 16 18 10 6 9 11 13 12 9 9 8 4 4 9 12 15 16 15 16 18 13 7 7 7 4 6 8 7 6
26 27 26 25 24 23 22 22 19 16 15 14 11 8 5 3 5 5 6 6 6 6 7 7 7 8 8 5 6 11 12 10 11 12 9 9 11 10 8 10 11 13 16 15 13 15 18 16 14 15 16 14 15 21 20 12 19 29 17 15 10 4 8 14 18 18 13 9 8 8 8 9 14 17 18 17 15 15 14 12 12 7 4 6 9 7 8
26 27 26 25 23 23 21 21 20 16 14 13 9 4 4 4 4 6 7 7 7 7 9 11 12 13 12 8 8 12 13 11 10 9 9 10 9 7 7 9 10 12 13 11 12 15 14 12 15 16 16 17 19 22 18 12 19 27 16 9 6 4 7 12 17 19 18 15 12 12 13 12 13 16 18 19 19 17 15 15 14 9 7 9 8 6 7
26 26 26 24 23 23 22 20 19 17 15 14 9 4 4 5 4 6 8 7 8 10 12 14 14 14 12 8 7 11 12 12 11 8 8 10 7 4 8 13 12 12 11 8 8 11 11 11 13 15 17 17 15 15 14 12 17 21 16 11 6 2 5 10 15 16 18 20 18 16 15 14 13 15 17 17 19 21 20 16 12 11 10 11 9 9 9
27 27 26 24 22 22 22 20 18 18 16 13 8 6 5 5 5 5 5 6 9 10 10 11 10 10 10 8 8 10 12 13 12 9 9 11 9 6 9 14 14 11 10 7 7 10 11 13 15 16 17 16 11 9 9 11 19 21 14 11 13 9 5 8 9 9 14 19 20 19 18 17 14 12 16 18 18 20 20 17 12 9 8 9 10 9 8
27 27 26 24 23 21 20 19 17 16 14 10 6 7 9 10 9 5 3 5 8 7 8 8 7 7 7 7 8 9 11 13 13 10 10 11 12 10 10 12 10 8 8 8 9 12 12 14 17 18 16 14 13 10 9 12 18 18 13 10 14 13 5 6 5 2 6 13 19 21 20 18 17 15 15 18 16 14 13 14 14 12 10 8 8 9 8
27 26 26 25 23 21 20 18 16 14 12 10 6 6 9 10 7 2 1 5 6 5 7 8 7 7 6 7 10 11 12 13 13 10 8 9 12 12 10 8 6 6 9 10 10 13 14 14 16 17 16 16 16 15 15 17 15 13 13 11 10 11 9 4 5 4 4 7 15 22 19 15 16 17 13 10 10 10 11 11 13 16 13 7 5 6 6
26 25 25 24 22 21 19 18 16 13 12 13 9 8 10 9 5 1 2 5 6 5 6 7 6 7 8 11 13 13 14 15 13 9 7 9 12 12 11 9 7 6 8 10 11 13 14 15 14 15 17 19 19 18 19 20 18 14 12 11 10 12 12 6 4 5 5 7 9 12 14 13 12 11 9 9 9 10 10 9 9 11 11 9 8 8 6
25 24 24 23 22 21 19 18 16 13 14 15 14 14 16 12 6 3 2 5 7 6 5 7 8 10 13 14 14 14 15 15 15 13 11 12 13 13 12 10 8 7 6 8 12 12 12 15 15 15 18 19 18 19 20 20 19 16 13 13 12 12 11 6 4 4 4 4 4 5 9 9 6 6 8 12 13 11 9 9 7 4 2 5 9 10 6
23 24 24 22 21 20 18 16 15 14 14 14 15 17 18 12 5 2 2 4 6 6 7 9 12 14 15 15 14 14 14 14 15 15 13 12 14 14 12 9 9 9 7 9 12 10 8 11 12 12 13 13 13 16 16 17 18 17 15 15 12 8 8 7 3 4 4 4 4 5 5 2 3 3 7 7 7 7 5 5 5 3 7 5 1 1 2
22 22 22 21 20 18 16 14 14 14 14 13 14 17 19 14 7 3 2 3 5 7 8 9 10 12 14 14 13 12 12 12 12 11 10 11 12 12 12 10 8 8 8 8 6 2 3 6 7 7 7 8 9 10 9 10 13 15 16 15 10 6 6 6 3 1 5 5 4 3 3 3 4 4 3 3 3 2 3 2 2 4 7 8 6 7 8
20 20 20 20 18 16 15 13 13 13 13 12 12 15 17 16 12 7 3 3 5 7 7 7 8 10 12 12 11 10 9 8 8 8 9 9 8 8 11 12 10 9 10 7 1 2 1 3 4 5 3 4 6 6 5 6 7 9 13 12 8 6 4 4 4 2 1 3 3 3 4 5 5 3 1 3 7 9 7 5 3 5 6 8 9 9 9
18 19 20 19 17 15 14 13 13 13 12 11 12 14 16 15 14 12 6 3 4 5 5 6 9 11 10 10 11 11 7 5 6 7 7 8 9 8 9 10 10 9 8 5 0 2 1 3 4 4 3 3 4 5 5 5 6 7 10 11 8 6 4 4 4 3 2 4 2 5 4 3 3 3 2 1 5 9 7 4 3 5 6 8 11 11 9
18 17 17 17 15 15 14 13 13 13 12 11 11 13 15 14 13 11 6 3 4 5 7 10 11 10 8 7 9 7 3 3 5 4 3 7 10 10 9 8 9 8 6 3 1 2 3 4 4 5 5 3 3 5 5 5 5 6 10 14 11 6 3 4 4 4 2 5 1 3 2 1 2 0 1 2 4 9 5 1 2 4 6 9 11 11 9
17 17 16 16 15 15 15 14 13 13 12 11 11 13 15 15 14 10 4 3 4 5 7 11 11 8 7 7 8 6 4 4 5 3 4 6 5 6 8 8 7 6 5 3 2 3 3 4 4 4 5 4 3 5 5 3 3 4 7 9 9 7 5 3 3 5 4 4 2 2 1 1 3 6 7 5 5 8 4 4 2 3 7 8 9 9 8
17 17 16 16 16 15 14 13 13 12 10 9 10 12 14 14 13 10 5 3 5 6 8 11 12 11 10 10 9 7 6 6 4 3 5 5 2 5 10 6 4 4 3 2 1 3 3 3 4 4 4 4 4 4 4 3 2 4 6 6 5 6 5 4 3 3 4 4 2 1 3 4 3 8 10 8 5 4 2 2 3 5 8 9 9 9 7
17 17 16 16 16 15 14 12 11 10 9 9 10 13 15 15 13 12 9 6 5 7 9 12 14 15 13 11 10 9 7 6 4 3 5 4 3 7 8 3 2 3 3 1 1 3 3 4 4 3 4 4 2 1 3 4 3 2 3 3 3 4 3 3 4 3 3 3 3 2 2 6 4 6 6 5 2 3 2 5 6 6 8 8 8 8 6
17 17 16 16 15 14 13 12 11 10 10 10 11 13 16 15 13 12 11 9 6 5 7 9 13 16 16 15 15 14 12 10 9 6 4 4 3 3 4 3 1 1 2 2 2 2 2 2 3 3 4 3 1 1 3 3 2 1 0 1 1 3 3 2 3 4 3 2 2 1 5 9 5 3 2 1 3 3 4 6 5 5 6 7 7 7 7
17 17 16 15 14 13 12 12 12 11 11 11 11 13 14 14 13 12 10 9 9 9 12 16 19 22 25 26 26 24 22 21 19 14 8 5 4 4 5 6 3 2 1 2 2 2 3 2 3 3 2 2 2 2 2 2 0 2 3 2 0 2 2 1 2 2 1 3 4 6 11 13 8 4 7 6 7 8 9 9 7 5 5 5 6 6 7
17 16 16 15 14 14 13 13 12 12 11 11 11 12 14 15 15 15 11 9 9 11 17 21 20 20 22 25 26 28 28 27 26 22 15 9 6 5 6 6 3 2 2 1 1 3 3 3 4 3 2 2 2 1 1 1 1 2 3 2 2 3 2 2 2 2 4 4 2 6 12 16 13 2 9 11 9 9 10 10 9 7 6 6 7 7 8
17 16 16 16 15 15 14 13 13 12 12 12 11 13 15 17 16 14 11 7 5 6 9 12 10 9 12 17 20 22 22 22 22 23 22 16 9 5 6 5 2 3 3 5 4 2 3 4 4 3 2 2 1 1 1 0 1 2 2 1 2 4 4 2 1 3 4 3 4 6 9 15 16 6 8 13 12 11 10 9 8 8 7 8 9 9 9
18 17 17 16 15 15 15 14 14 13 13 13 13 13 15 16 14 11 8 6 4 4 6 7 9 13 18 20 19 18 17 16 17 18 21 20 14 10 8 6 5 5 5 5 5 3 3 3 3 3 3 2 1 1 1 1 2 2 2 1 1 2 5 4 3 2 2 4 5 5 5 11 16 10 3 11 12 13 13 11 9 10 10 11 11 10 9
19 18 17 17 16 16 15 15 14 14 14 14 14 14 15 17 16 13 10 7 4 4 5 6 10 15 17 16 17 19 19 18 18 18 20 23 22 19 14 9 7 7 4 4 4 4 3 2 3 4 4 2 1 1 0 1 0 0 0 1 2 2 3 2 3 4 4 4 5 6 6 8 13 14 8 8 11 13 14 12 12 13 12 12 12 11 10
19 19 18 17 16 16 16 15 15 15 15 15 14 14 16 18 18 16 13 9 4 3 5 5 7 12 15 18 24 29 25 22 21 21 22 24 25 22 17 10 7 6 4 4 4 3 2 2 3 4 3 3 3 2 2 1 1 1 2 2 2 2 1 1 1 2 2 1 4 6 5 4 7 12 11 10 10 12 14 13 13 13 11 10 12 11 11
20 20 19 18 17 17 16 16 15 15 16 17 16 16 18 20 20 19 17 14 8 4 5 6 7 11 14 17 22 25 21 17 17 18 20 21 21 20 16 10 6 5 5 5 4 2 2 2 3 2 2 3 3 2 1 0 0 1 3 2 3 2 2 1 0 2 4 5 5 5 3 3 5 9 10 9 7 10 13 13 12 12 10 10 10 10 10
21 21 20 19 19 18 17 16 16 16 16 17 17 16 16 17 16 15 14 14 12 7 5 7 8 9 10 13 18 21 20 17 15 15 16 17 16 15 11 8 6 6 5 4 4 3 2 2 2 2 2 1 2 2 1 0 1 2 3 4 4 2 2 2 1 3 6 7 6 3 2 1 4 7 8 8 6 7 11 12 11 11 10 10 11 10 10
23 22 21 20 19 19 18 17 16 15 15 15 14 11 9 6 5 3 3 6 9 7 4 5 6 6 7 12 16 16 17 16 12 11 12 12 10 9 8 7 6 6 5 4 3 2 1 1 2 3 3 3 2 3 2 1 2 2 1 2 1 0 1 1 1 4 7 7 4 2 2 3 1 4 6 6 6 6 9 10 10 10 10 10 10 10 9
25 24 22 21 19 18 18 18 17 15 13 11 8 4 2 1 1 3 1 3 7 6 4 5 6 6 6 9 8 6 8 12 12 9 9 8 7 9 9 8 5 5 5 4 2 1 1 1 1 3 2 1 1 2 2 1 3 2 0 1 1 2 2 2 3 5 7 7 3 4 4 2 0 2 3 5 5 5 7 8 10 11 12 11 10 9 9
27 25 24 22 20 19 18 18 16 14 11 11 10 9 10 12 12 13 16 18 15 8 3 4 6 4 3 6 5 4 7 11 10 7 6 5 5 7 8 6 4 5 5 3 1 1 1 2 3 3 2 1 0 2 2 2 3 3 2 1 2 2 2 4 5 5 5 3 3 8 6 2 2 3 0 3 5 5 7 8 8 9 10 10 10 9 9
26 25 24 22 20 19 19 18 17 15 14 14 16 19 20 19 17 17 19 18 12 5 3 3 5 4 3 5 6 6 7 7 6 4 3 3 3 5 5 5 4 3 3 2 2 1 1 1 2 2 1 1 0 2 3 3 4 3 2 1 2 3 3 5 5 3 1 1 3 4 5 4 4 2 1 1 4 6 6 6 6 7 8 9 9 9 8
27 25 22 20 18 18 19 20 18 15 12 11 13 16 15 13 10 8 8 8 6 5 3 2 3 4 4 5 4 2 2 4 4 2 1 1 1 2 3 1 2 1 0 1 0 0 0 1 1 1 1 1 1 2 3 3 3 2 1 1 3 4 4 5 4 0 3 6 7 6 4 3 2 1 2 4 5 5 5 5 5 7 9 9 8 7 6
25 21 17 16 17 19 20 17 13 9 8 9 11 12 11 10 9 8 8 9 5 3 2 3 3 4 4 4 3 2 2 4 3 2 2 2 3 2 2 2 1 1 0 1 1 1 1 1 1 1 1 1 2 3 3 2 2 2 0 2 4 4 4 4 3 1 3 6 8 7 4 3 2 2 3 5 5 5 6 6 6 7 8 8 6 6 6
17 15 15 16 17 17 14 10 6 6 6 7 9 9 10 10 9 8 9 11 8 4 3 2 3 3 3 4 3 3 4 4 2 1 2 1 2 1 0 2 1 1 0 1 1 1 1 1 1 1 1 1 2 2 2 1 1 2 3 3 4 3 3 5 2 4 8 8 6 6 6 5 3 2 3 5 5 5 6 6 6 6 7 6 6 6 6
13 15 17 17 13 9 6 5 6 7 7 8 10 11 11 10 8 6 7 8 9 7 3 2 4 5 3 3 3 1 3 3 2 1 1 0 1 0 0 1 1 1 1 0 1 1 1 1 0 1 2 3 2 2 1 1 2 2 3 3 2 2 3 5 3 7 12 10 7 4 4 4 4 4 4 4 4 4 6 6 5 5 5 5 4 5 5
16 17 14 9 5 3 2 3 5 7 8 9 10 9 6 3 3 3 3 3 5 6 4 3 5 4 3 4 4 2 1 2 2 1 0 1 1 1 1 1 1 1 1 1 1 1 1 1 1 1 2 3 2 0 1 2 3 2 2 2 3 3 4 4 5 7 9 9 6 5 4 4 4 3 4 4 5 4 4 3 3 3 3 3 3 4 4
15 11 6 3 2 3 5 6 8 10 9 6 4 3 2 2 2 2 2 2 3 3 3 3 4 4 4 5 5 2 2 2 2 1 1 1 1 1 0 0 1 1 1 1 1 2 1 1 2 1 2 3 1 1 2 2 2 2 3 3 3 3 4 6 6 6 5 5 5 4 4 4 3 2 2 4 5 4 4 3 3 3 3 3 3 3 3
12 8 4 2 3 7 11 13 14 12 6 2 3 1 1 2 2 1 1 1 2 2 3 3 3 3 5 6 5 3 3 3 1 1 0 1 1 1 1 1 1 1 1 1 2 2 2 1 2 1 1 2 1 3 3 4 4 3 3 2 3 4 5 4 3 2 2 3 4 4 3 4 4 4 3 3 5 5 5 4 3 3 3 3 3 3 3
10 6 5 7 12 18 19 17 13 7 3 2 2 2 2 1 1 1 2 2 2 2 1 2 2 2 3 4 4 3 2 2 1 0 1 1 1 1 1 1 2 1 1 1 2 2 1 1 3 1 2 2 2 4 5 4 3 3 2 2 3 3 3 2 1 1 2 3 3 3 4 5 6 5 5 5 5 5 5 5 5 5 5 5 5 6 6
11 11 14 17 21 20 16 9 5 2 1 1 2 2 2 2 1 1 1 2 2 1 0 1 3 3 3 3 3 3 2 2 2 1 2 2 2 2 2 2 2 0 1 1 2 1 0 2 3 1 2 2 3 5 5 3 2 2 2 3 3 1 2 2 3 3 3 4 4 4 4 4 4 5 5 5 5 5 6 7 6 6 6 8 10 11 12
17 14 13 13 11 8 4 2 0 0 1 1 2 2 3 2 2 2 2 1 1 1 1 1 2 3 3 2 2 2 1 1 1 1 2 1 1 2 2 1 2 1 0 1 1 2 3 3 3 3 2 3 4 5 4 3 2 3 4 4 4 3 2 3 4 4 4 5 5 5 4 4 5 7 9 8 7 6 7 7 7 7 9 11 12 13 14
16 8 4 3 2 1 2 2 1 1 2 2 2 3 4 5 5 5 3 1 1 2 2 2 3 4 3 1 1 1 1 1 1 1 1 1 0 0 0 2 2 0 0 1 2 3 3 3 3 4 4 4 4 4 5 5 4 5 5 6 6 7 6 5 5 4 4 5 5 5 5 5 6 8 9 9 8 7 5 6 8 11 13 13 12 13 13
8 3 2 2 2 1 2 2 2 2 3 3 2 3 4 6 7 7 5 2 2 4 4 3 3 4 3 1 1 1 1 0 0 0 1 1 1 2 2 1 1 1 2 3 3 3 3 4 4 5 5 4 4 5 6 5 5 4 4 6 8 9 9 8 6 5 5 6 6 6 6 6 6 5 6 8 9 9 8 8 10 12 12 11 10 11 12
4 2 2 3 3 1 1 2 3 2 2 3 4 4 5 7 7 7 6 5 5 6 6 4 3 3 3 1 0 1 1 1 0 1 1 1 2 2 1 0 1 2 3 4 3 3 3 3 4 5 5 5 5 5 5 5 4 3 3 5 7 7 7 6 5 5 5 6 7 7 7 6 5 5 7 9 11 13 13 14 14 14 12 9 9 10 12
3 3 1 1 2 2 1 1 1 2 3 4 5 6 6 6 6 6 5 5 5 6 6 5 3 2 1 1 0 1 1 1 1 2 1 0 1 1 1 1 3 3 3 4 4 4 3 3 5 6 7 6 6 5 5 5 5 4 3 4 6 7 4 4 6 7 7 6 7 7 6 5 5 6 7 9 11 13 14 15 15 15 14 12 11 12 13
3 2 0 1 1 2 1 0 2 4 5 4 5 6 6 4 4 5 5 4 3 4 5 5 4 2 1 0 0 1 1 1 1 1 0 0 1 1 2 3 4 4 3 4 4 3 4 5 7 6 6 7 7 6 6 6 7 6 4 2 5 6 4 4 7 6 4 4 4 5 4 4 5 6 6 6 7 10 13 14 13 14 14 14 14 14 14
3 1 1 1 0 1 2 2 2 3 4 4 4 5 6 6 6 6 6 5 4 3 3 3 3 2 2 2 2 3 3 3 3 2 2 2 3 3 2 4 5 4 3 4 5 5 5 6 6 7 7 7 6 5 6 7 6 5 3 2 2 4 4 4 5 5 2 1 3 4 4 3 5 6 7 6 6 8 10 11 11 11 11 11 11 12 13
3 2 1 2 3 3 4 4 3 4 5 5 5 6 7 7 8 7 6 5 5 4 2 2 2 2 2 2 2 3 3 3 3 3 4 5 5 4 3 5 6 5 4 5 6 6 5 4 5 6 6 6 5 5 6 7 6 6 7 7 5 4 5 6 6 5 5 5 4 3 3 3 5 6 5 4 4 7 9 10 10 9 9 9 9 9 10
3 1 2 4 5 4 5 6 7 7 7 7 7 6 4 3 6 7 6 6 5 5 5 4 3 2 3 3 3 3 2 2 3 4 5 4 4 3 4 5 7 6 5 5 5 4 4 4 5 5 5 5 7 7 6 6 6 7 8 8 8 8 9 8 6 5 6 6 5 4 5 7 8 9 9 9 10 11 11 12 13 13 11 11 12 13 13
2 2 3 5 5 5 5 5 6 6 6 6 7 7 5 4 4 6 6 5 6 8 7 5 3 3 4 4 3 2 2 2 4 6 5 3 3 3 4 5 6 5 4 4 4 4 3 4 4 4 5 6 7 7 7 7 8 8 7 8 9 10 8 7 7 9 10 10 11 12 13 14 15 15 16 16 14 10 7 9 15 18 18 18 20 20 18
Wind_Direction
323 323 323 323 324 325 324 324 325 329 334 337 337 331 313 292 292 292 295 302 311 308 280 274 257 249 260 262 263 267 269 273 272 268 270 276 281 281 279 280 282 286 288 290 288 281 277 276 277 283 268 235 218 211 201 195 196 202 211 199 187 192 208 211 227 255 269 268 228 186 180 187 201 206 202 209 219 220 220 221 190 193 218 196 193 237 237
323 322 321 320 320 321 322 323 323 325 330 332 330 325 308 299 293 290 295 297 293 272 269 265 259 268 272 268 267 268 269 277 280 279 287 306 305 299 306 308 308 318 327 320 303 299 291 275 274 286 293 291 283 255 222 211 206 195 198 196 179 188 200 191 198 223 246 262 257 200 185 186 200 203 195 202 212 217 228 232 204 204 218 199 183 230 240
323 322 320 319 318 319 319 319 320 322 324 327 323 311 295 303 287 271 296 299 289 252 253 261 264 270 273 274 278 283 284 295 310 319 322 320 313 316 322 322 327 338 348 346 330 329 332 305 287 289 291 293 306 312 292 255 243 220 199 186 177 193 192 181 196 203 208 223 230 206 186 184 194 204 201 201 202 208 222 224 207 219 223 211 201 224 256
322 321 320 318 317 318 316 314 315 317 319 321 315 302 292 303 298 286 302 305 302 291 282 277 271 278 292 296 305 315 312 310 322 326 319 310 317 328 322 321 336 352 355 348 333 338 348 335 321 328 322 309 315 337 340 318 301 294 241 201 180 196 192 189 204 207 206 219 225 220 190 185 190 199 206 207 202 202 208 215 221 215 193 223 227 214 241
321 320 320 318 316 316 313 310 308 309 312 314 309 297 284 283 284 294 315 318 314 316 315 314 317 320 324 320 310 311 308 309 316 315 308 313 326 331 317 324 350 1 357 348 330 334 342 335 338 348 338 327 323 331 338 335 335 334 298 219 190 203 205 193 201 211 212 217 231 235 233 215 196 192 200 211 214 208 204 213 226 211 165 242 247 204 218
319 319 319 317 315 314 310 305 303 300 300 304 304 288 268 273 274 292 306 303 298 307 314 319 321 316 309 298 291 296 297 299 305 307 309 315 325 327 302 310 345 358 354 345 329 334 340 332 340 347 338 333 332 331 336 343 350 351 330 255 206 186 210 197 196 209 215 219 230 232 237 241 217 196 194 202 212 220 220 220 219 204 202 240 240 185 203
318 317 316 314 313 311 307 304 301 295 290 293 293 270 262 278 279 289 299 295 291 298 301 305 307 305 304 297 284 287 289 289 291 295 299 298 303 320 296 299 325 343 344 346 328 326 334 330 336 341 332 332 334 326 327 344 355 353 337 308 294 223 200 198 198 204 209 217 228 232 238 248 234 207 195 197 207 215 224 232 224 207 214 233 229 207 213
317 315 314 312 311 308 306 305 301 294 291 292 281 250 249 269 277 290 310 303 291 293 296 299 302 304 307 301 287 285 284 283 284 281 281 288 295 304 294 297 315 332 335 334 310 304 319 321 320 325 325 326 330 321 322 337 335 331 328 320 310 290 223 186 194 204 204 208 218 230 238 245 247 225 201 201 209 211 216 226 232 228 224 225 224 223 230
316 315 313 311 309 306 304 302 299 293 290 284 266 249 251 264 281 304 326 298 291 296 299 299 301 299 298 298 303 305 299 298 302 296 289 295 296 295 299 301 311 324 320 311 297 297 308 311 307 309 310 308 305 301 306 315 315 315 314 312 311 305 265 174 150 177 210 204 207 219 232 241 251 249 222 207 209 212 211 210 213 223 230 224 220 224 236
316 316 313 311 308 305 302 297 292 290 278 258 250 268 271 276 292 321 256 276 285 292 290 288 287 283 286 300 305 304 301 302 305 299 290 292 294 301 313 308 298 299 294 286 283 289 295 299 299 297 290 285 285 283 287 291 288 290 298 295 296 302 288 228 149 152 222 224 212 210 214 229 243 244 239 223 209 214 220 209 200 206 214 218 218 219 221
316 314 312 311 308 305 302 295 288 281 265 250 246 267 278 286 305 319 266 280 283 287 289 283 277 281 294 303 301 300 301 300 300 301 301 296 295 299 301 296 288 283 275 270 271 277 285 290 290 289 287 285 283 281 283 285 276 268 278 285 283 290 289 261 171 161 200 228 232 211 201 216 231 231 238 249 240 230 230 228 212 205 210 211 206 213 218
314 313 312 311 309 306 300 293 288 277 263 257 255 261 267 277 296 295 262 282 288 291 286 276 279 291 294 292 292 298 307 310 308 306 302 297 293 285 279 276 271 265 257 262 270 276 290 298 295 290 288 287 285 284 283 282 279 273 270 273 275 285 295 276 198 159 165 188 232 230 213 220 223 198 209 234 244 246 245 249 253 254 252 232 219 218 218
313 314 315 313 311 308 300 292 288 279 269 261 252 256 265 272 281 269 252 278 284 280 280 284 288 292 291 291 294 299 307 313 309 305 305 306 300 290 280 273 268 268 257 248 259 276 300 307 303 293 289 290 287 286 284 279 276 277 277 277 276 287 302 294 229 159 153 165 194 219 230 304 340 219 203 216 246 260 259 265 285 7 59 61 331 286 71
313 315 315 314 312 309 302 295 290 282 276 267 254 259 267 267 257 239 250 265 266 276 290 294 292 291 293 298 304 306 308 310 309 310 310 304 300 297 295 297 303 308 296 261 247 289 332 310 307 303 306 309 295 287 293 285 273 272 275 278 282 287 294 303 308 178 174 179 192 240 274 306 304 275 223 147 121 126 142 150 321 14 71 88 71 41 40
315 316 316 316 314 309 304 299 295 287 281 272 262 262 267 265 255 244 233 250 272 283 279 263 274 298 309 310 305 303 308 311 313 315 306 294 297 301 296 301 315 320 310 297 236 110 304 280 292 299 303 304 292 294 316 313 288 272 269 269 271 278 291 313 318 321 108 147 174 224 248 237 230 244 337 75 101 109 115 107 41 2 32 78 87 67 43
322 320 319 320 317 310 305 302 298 293 285 274 267 264 266 266 259 250 240 240 262 270 269 275 292 305 308 302 295 295 307 320 315 316 312 305 310 307 292 298 317 325 320 315 343 130 235 241 245 264 264 279 300 300 307 317 316 304 302 305 301 292 310 332 313 298 48 86 165 217 217 217 213 186 205 297 93 98 92 62 10 335 3 56 79 76 57
328 325 323 322 319 313 311 307 302 297 288 278 271 267 269 271 266 255 243 232 246 258 276 288 293 295 292 293 294 297 314 313 297 298 304 304 312 320 316 311 317 329 344 336 249 181 211 236 240 249 249 251 293 294 296 317 321 322 334 338 333 328 346 357 336 318 45 85 86 259 196 192 281 238 169 217 104 95 102 193 270 335 13 51 72 75 68
331 329 326 325 322 317 316 312 305 300 292 282 276 274 274 275 272 265 251 244 259 259 262 268 271 274 280 287 293 296 291 286 288 283 283 294 301 307 312 321 324 332 5 15 277 217 214 235 244 257 253 230 229 270 286 302 302 329 357 353 343 346 359 17 356 330 2 71 78 312 30 282 312 17 17 359 65 89 124 200 217 36 48 54 63 72 72
333 331 328 326 323 319 317 314 310 306 298 289 282 276 276 277 275 268 246 225 248 257 267 279 284 282 281 284 286 286 280 279 285 282 283 296 323 293 295 319 358 339 351 39 253 233 221 232 247 268 264 236 222 257 277 277 299 356 15 6 347 352 357 3 353 322 341 30 38 3 328 304 347 40 24 11 51 106 137 83 41 56 71 63 55 61 64
332 329 327 325 323 321 320 318 315 310 302 294 287 279 280 285 285 272 253 234 250 270 270 271 270 268 271 277 279 281 281 273 268 265 265 272 328 320 303 310 30 341 331 11 270 249 229 226 237 251 251 241 231 270 282 275 274 315 3 22 4 352 344 338 344 343 341 352 23 81 309 305 353 49 22 11 68 180 169 71 51 53 70 69 61 53 42
330 329 327 326 324 323 321 318 315 313 306 298 293 287 286 290 291 281 265 247 249 274 277 273 274 274 275 278 278 280 282 274 268 273 272 268 285 313 298 294 331 16 352 343 323 293 274 254 251 252 254 258 225 201 286 292 254 229 62 82 19 359 9 347 350 22 23 330 330 341 310 313 341 63 73 77 111 120 103 86 68 48 56 65 63 47 29
332 331 331 330 328 326 323 318 315 312 307 302 297 291 288 289 292 294 285 257 243 256 272 280 283 279 275 274 272 269 266 266 269 270 267 266 251 223 253 280 268 155 126 333 309 299 312 313 290 279 273 273 252 222 274 295 273 76 59 68 63 45 56 257 278 353 323 270 283 311 319 320 334 71 98 96 87 81 83 88 81 58 50 63 67 53 38
333 333 332 331 329 327 323 320 316 312 308 307 301 289 286 289 292 296 294 269 251 261 268 270 272 270 267 266 265 261 255 254 258 257 252 255 265 248 250 266 250 147 131 177 225 287 297 285 280 284 280 265 258 245 245 260 309 28 42 69 85 65 73 223 252 333 308 275 299 345 340 331 322 347 105 97 90 87 85 86 84 75 65 68 70 66 58
333 331 330 328 327 326 324 321 317 312 307 305 300 290 287 288 289 292 290 272 260 278 275 264 257 261 271 276 275 270 261 254 253 250 243 240 247 261 261 252 204 135 167 191 190 216 271 272 273 274 279 289 293 296 293 2 41 21 17 40 73 52 31 345 306 340 325 321 8 9 344 326 316 309 104 95 90 90 85 82 87 87 78 71 68 66 65
331 330 329 327 325 325 324 321 317 314 309 306 302 296 290 286 286 287 281 268 272 298 295 284 275 276 281 284 280 273 269 268 268 260 249 240 232 237 256 252 200 176 182 186 181 192 241 271 282 277 281 293 293 311 325 9 56 49 29 0 341 20 18 359 330 337 317 300 326 346 335 320 314 310 89 97 94 91 87 85 85 80 72 66 62 58 58
330 328 326 324 324 323 323 322 319 316 312 309 304 296 288 285 284 280 272 268 273 269 267 277 284 285 290 295 292 288 284 279 272 263 256 251 241 235 243 249 228 214 204 178 182 207 228 246 274 283 290 289 279 303 286 241 291 52 207 236 258 302 344 336 313 318 306 289 322 350 354 341 329 327 0 68 89 90 86 83 78 74 71 68 64 57 54
327 325 322 321 320 320 320 320 319 317 315 313 307 297 286 283 281 274 262 256 257 263 262 265 286 298 304 302 294 289 284 277 268 257 250 247 239 230 229 234 233 235 241 227 217 222 228 242 265 274 283 298 300 276 218 214 234 257 249 228 218 248 274 316 313 308 293 319 6 4 356 346 329 329 351 31 65 80 82 78 73 70 68 67 66 62 54
322 321 319 318 317 317 317 317 317 317 316 314 310 301 289 283 279 271 260 247 235 253 283 278 286 301 304 298 291 287 282 273 267 260 256 251 239 225 220 222 223 225 234 240 237 226 224 247 266 270 278 304 304 274 225 161 153 225 235 212 188 190 176 139 334 290 277 294 321 333 338 337 321 324 342 3 35 71 81 80 78 76 70 65 67 65 56
319 318 318 318 316 314 313 313 314 315 316 318 317 307 295 284 274 267 259 244 232 240 286 285 281 292 298 296 296 298 294 283 263 253 255 255 243 227 216 208 213 221 229 238 238 235 238 239 248 257 240 227 287 295 291 225 227 239 215 187 185 187 168 161 233 273 272 280 293 296 264 260 312 332 344 348 3 57 78 80 81 83 78 71 70 66 60
314 314 316 316 315 313 311 309 308 308 312 318 316 303 289 282 265 257 257 235 229 235 272 292 288 294 295 291 293 297 302 302 290 265 256 255 251 243 225 204 201 211 223 233 227 221 270 285 270 268 239 191 215 290 294 245 253 264 200 162 177 319 0 340 261 255 263 275 288 280 227 205 257 340 345 340 351 41 71 78 79 81 80 77 73 69 64
312 310 310 310 309 309 309 309 309 309 307 309 309 297 293 331 120 148 150 297 283 269 263 279 287 289 288 285 279 271 288 301 301 283 262 262 272 259 234 214 202 204 211 226 218 166 184 237 260 276 272 199 213 272 294 288 279 278 286 48 18 23 0 320 279 255 266 273 232 161 168 193 100 31 353 331 344 34 67 73 72 75 76 74 72 70 69
312 309 308 306 305 305 307 310 313 309 292 274 264 257 262 271 271 266 274 287 294 290 271 281 290 294 297 294 298 320 318 307 300 283 252 246 267 262 234 211 211 214 202 186 125 123 202 225 240 265 295 63 168 268 264 251 265 286 318 348 2 16 352 312 293 274 272 270 161 146 144 115 68 83 347 309 343 32 59 63 67 74 76 75 74 69 64
313 311 309 307 305 302 303 308 309 301 287 273 265 262 263 269 280 286 284 282 278 257 234 278 286 278 284 295 308 342 347 322 300 280 236 210 235 261 238 204 204 221 206 168 150 163 212 235 247 259 260 131 189 276 265 247 255 283 305 317 351 357 336 313 305 287 194 95 94 117 126 116 104 114 166 35 25 34 49 58 65 73 74 74 74 69 63
316 315 313 307 302 298 300 305 304 295 286 273 267 268 269 271 282 287 264 246 247 250 240 248 272 273 279 290 297 330 332 308 307 316 298 271 306 290 272 216 195 216 198 96 142 211 237 265 270 255 223 183 202 253 262 264 265 270 289 342 359 356 334 317 314 330 112 92 81 75 69 77 84 54 53 62 48 37 45 53 60 74 77 72 68 67 65
320 319 312 303 300 301 302 302 293 278 269 262 262 270 272 267 270 268 230 207 215 268 252 219 246 275 288 295 299 314 312 306 311 301 286 345 24 10 354 16 7 289 134 97 143 200 234 255 251 247 228 191 207 235 256 276 268 230 157 21 15 14 348 315 287 156 95 82 93 101 93 77 84 67 57 61 55 48 51 48 48 67 79 76 66 63 61
326 318 308 304 304 304 301 289 252 230 248 259 261 273 282 277 274 264 231 213 217 250 277 262 254 264 284 291 293 326 333 318 301 268 275 357 38 26 39 56 34 316 178 106 169 197 205 218 230 270 277 237 230 255 274 261 203 159 106 59 28 10 330 304 296 99 84 70 84 122 143 149 148 133 86 72 62 54 55 54 49 56 71 75 68 61 59
323 314 310 310 307 295 281 253 224 227 255 270 270 276 283 280 267 246 222 213 218 222 234 282 263 251 261 271 262 307 337 311 292 312 315 11 74 319 170 115 138 225 214 188 212 191 177 180 191 283 268 256 259 280 288 116 105 102 100 86 33 350 325 319 357 81 88 80 72 85 116 122 117 116 110 100 89 74 64 57 49 50 61 66 58 52 51
323 316 310 306 300 282 269 248 244 262 284 289 283 278 273 253 233 225 210 199 202 198 196 244 258 245 239 252 246 215 225 277 278 277 188 184 180 207 190 154 161 214 247 251 225 156 125 120 138 207 262 271 278 298 93 87 69 52 60 60 26 6 6 9 25 61 83 87 80 68 63 63 68 83 102 106 102 97 92 86 74 63 61 61 60 59 50
334 320 294 260 260 288 293 293 300 308 306 284 256 254 233 206 236 245 206 186 203 206 201 223 244 240 234 249 255 223 184 239 284 279 187 180 164 180 220 128 115 118 276 252 192 144 142 169 166 183 272 284 301 45 86 97 85 54 38 33 20 17 31 36 35 42 62 82 86 72 50 34 24 23 90 111 108 100 97 96 88 77 70 66 68 71 62
343 325 295 281 308 307 303 302 305 310 309 231 188 215 249 233 246 267 235 212 233 229 211 215 237 232 221 239 263 250 185 193 253 291 142 116 119 120 74 59 124 156 223 216 178 174 195 169 109 82 301 295 355 57 81 95 87 69 48 20 18 37 44 40 34 45 64 75 82 81 61 47 38 24 24 64 88 93 91 87 81 75 71 70 67 56 41
339 331 311 304 304 303 303 302 297 288 264 199 217 240 235 229 236 246 264 270 264 240 208 224 260 257 219 220 247 252 200 192 223 231 144 180 180 152 135 161 184 201 212 169 161 189 212 86 68 45 285 297 15 61 76 79 73 72 60 7 6 36 60 49 34 63 70 60 62 63 55 55 59 54 41 39 46 58 65 66 63 54 46 49 54 44 30
310 296 289 294 299 297 295 292 283 252 230 264 284 263 242 249 263 248 249 266 280 294 252 221 250 266 252 228 233 240 219 205 211 202 193 197 184 171 184 191 178 129 96 148 172 201 133 63 56 11 285 325 39 63 72 76 84 88 60 12 350 0 127 113 84 74 70 66 66 62 51 46 55 65 65 57 48 47 52 53 52 46 42 48 52 46 37
316 299 285 288 296 296 287 284 305 1 306 311 315 305 292 301 332 317 281 270 286 285 260 233 256 267 258 233 240 250 221 199 208 221 223 209 180 192 204 166 106 83 140 166 82 35 45 50 40 28 25 25 32 46 58 63 59 49 40 26 11 15 55 90 90 76 64 61 62 61 57 53 53 55 56 56 57 56 50 42 41 46 49 51 52 48 42
324 306 258 246 269 306 341 347 0 9 348 339 330 315 317 330 337 324 307 313 318 284 266 261 288 299 300 263 239 251 210 199 230 247 242 244 252 245 56 57 54 38 133 73 47 39 41 33 23 32 43 34 16 19 31 39 39 33 31 33 31 28 34 50 60 59 58 55 50 48 55 59 57 54 53 52 56 57 46 37 50 61 61 56 54 54 52
313 282 245 290 315 347 21 13 4 353 337 322 303 292 303 312 314 311 311 314 289 279 277 274 282 295 303 296 278 316 303 220 226 310 302 315 3 33 45 41 355 10 49 52 42 35 36 22 9 19 32 30 17 16 21 26 29 28 30 40 44 39 34 31 28 26 34 40 37 39 52 59 54 50 50 51 55 59 57 52 56 64 66 64 61 58 56
277 283 321 335 326 326 6 357 343 337 318 292 284 287 294 298 298 296 301 308 305 300 303 303 291 290 302 313 342 332 311 281 342 345 313 330 29 35 29 18 26 37 44 46 39 34 33 22 9 16 29 35 33 28 17 9 14 28 39 55 63 58 41 26 19 20 32 45 49 47 50 52 46 43 51 54 55 56 58 58 57 56 57 59 61 61 60
275 288 315 0 330 315 5 31 315 278 268 277 293 299 296 290 289 290 295 304 308 312 311 301 279 261 253 207 152 334 295 276 17 13 350 8 36 20 0 40 41 35 38 47 46 36 25 25 23 23 28 37 41 35 16 2 8 20 32 64 86 88 69 37 36 35 29 39 57 60 53 44 42 45 54 59 59 58 59 61 60 57 55 55 58 61 63
297 302 281 342 315 291 290 279 261 267 264 262 280 297 299 300 317 328 326 316 317 330 328 315 303 301 297 217 26 9 355 0 29 24 324 179 50 31 32 44 46 40 38 46 43 24 17 30 33 30 32 36 34 27 17 7 357 344 335 29 96 104 97 75 70 64 24 353 38 65 62 46 48 57 65 69 68 67 68 67 64 62 61 58 56 57 59
285 260 251 280 220 210 255 242 226 265 281 280 299 326 341 350 349 340 330 324 325 323 299 282 295 331 349 347 2 18 15 8 3 356 0 25 32 26 27 42 49 47 41 42 39 24 17 27 39 45 48 46 37 35 43 34 9 342 337 27 103 134 140 119 108 111 108 33 45 59 56 43 47 55 58 58 61 70 76 78 75 68 61 58 59 63 64
272 228 284 343 13 4 331 329 354 354 337 334 349 3 3 351 337 332 332 329 320 310 299 300 323 349 349 345 6 25 22 10 4 5 13 21 23 22 32 47 51 50 45 45 45 36 23 24 34 40 43 45 42 44 53 51 36 32 41 43 42 61 83 88 94 107 106 88 65 40 33 56 67 69 70 72 66 63 64 67 70 67 58 50 49 54 57
265 242 19 17 17 7 354 358 6 4 354 348 350 357 0 337 319 317 320 323 330 354 15 10 352 347 6 15 24 25 6 358 18 30 29 24 13 10 29 49 57 60 56 48 40 32 27 33 34 28 28 38 44 45 46 44 43 49 52 45 37 46 66 82 94 101 99 92 76 46 35 46 61 70 70 60 48 43 41 42 46 52 55 46 36 35 46
302 347 21 29 21 8 8 15 8 355 353 356 351 345 349 347 317 298 302 334 11 25 22 8 2 22 26 19 14 8 2 21 38 41 39 33 18 21 41 56 61 62 59 51 40 35 35 36 29 18 18 29 37 38 34 32 36 44 48 45 41 43 48 58 65 64 61 56 49 42 38 38 45 52 55 50 43 37 34 33 37 43 49 47 40 39 48
Height
816 814 813 811 809 808 806 804 802 801 800 797 796 795 790 786 779 762 750 753 755 756 756 749 742 739 732 727 725 722 719 718 716 712 708 707 705 700 697 694 692 689 685 680 674 670 665 658 652 644 631 620 612 606 604 609 614 623 633 632 628 636 652 666 670 658 642 631 621 617 620 630 644 650 648 656 664 667 676 684 682 686 691 689 700 712 688
814 813 811 809 808 807 804 803 802 801 800 799 797 796 791 786 779 764 752 751 755 758 756 751 746 738 731 727 724 720 718 717 716 713 712 712 712 708 704 700 698 695 693 691 685 679 670 656 644 643 641 627 612 604 602 604 609 616 622 622 624 637 651 661 674 678 668 657 649 640 630 632 643 646 644 648 652 658 666 669 673 683 684 682 698 706 681
813 811 810 808 806 805 803 803 801 800 800 799 798 797 792 786 778 765 754 749 750 750 747 745 744 739 735 732 728 725 722 718 718 720 720 719 715 715 713 708 704 702 702 701 693 687 685 671 650 642 639 628 616 616 617 613 608 605 602 603 612 629 641 650 668 684 686 677 668 656 644 638 640 641 641 643 646 654 664 671 682 689 681 675 686 690 671
811 809 808 806 805 804 802 802 801 800 800 799 798 797 793 789 782 771 760 750 746 745 740 739 740 739 740 741 736 734 732 725 721 723 725 720 715 718 716 709 708 710 709 709 702 694 694 689 675 666 661 650 638 636 637 631 620 609 597 593 605 622 630 635 647 658 662 660 649 636 633 639 643 642 641 641 642 645 655 670 680 679 678 679 675 669 666
809 807 806 804 803 802 801 800 800 799 798 798 798 796 793 792 786 776 769 762 755 751 746 743 745 744 746 747 742 738 738 733 728 726 724 721 719 720 718 712 716 721 719 719 715 706 702 697 691 690 687 675 658 646 643 639 630 619 605 591 599 622 630 628 633 638 638 638 634 626 627 635 637 638 640 641 639 640 650 662 663 660 676 685 668 658 667
808 805 804 803 801 800 799 798 798 797 797 797 797 796 792 790 783 774 774 773 766 759 754 751 751 749 746 744 741 739 739 738 735 730 724 723 723 725 723 719 722 727 727 727 723 718 713 705 700 700 694 684 671 654 645 643 636 630 622 601 596 617 628 621 624 632 630 628 628 625 625 628 628 630 635 637 638 641 646 650 648 651 669 674 660 657 664
806 804 802 800 799 798 797 796 796 795 796 795 796 796 791 787 783 775 773 774 769 764 761 756 754 751 746 743 741 741 740 739 737 732 729 726 724 728 730 726 724 728 728 730 730 726 723 717 711 708 702 696 691 678 661 647 638 641 643 624 606 614 622 615 617 626 627 625 626 624 624 627 626 624 626 629 633 636 638 641 640 644 652 652 650 656 656
804 801 800 798 797 796 794 794 794 793 794 794 794 794 790 786 784 779 777 776 770 764 761 758 756 753 748 746 742 738 738 737 733 729 729 729 724 724 730 728 727 731 730 731 732 727 726 727 720 715 712 705 700 695 682 666 654 652 654 643 624 619 619 609 611 624 626 620 620 623 624 627 628 624 621 622 627 631 634 638 638 642 647 643 644 653 651
801 799 797 796 794 793 792 791 791 791 792 793 791 790 787 785 783 783 785 782 772 767 764 760 759 757 752 749 744 740 739 736 733 729 726 727 726 723 726 728 729 733 734 733 731 724 722 725 721 715 715 711 704 697 689 682 677 667 660 653 640 631 622 607 612 634 633 618 619 624 622 625 631 628 621 620 625 630 631 631 632 636 643 644 646 653 649
799 796 795 793 792 791 789 789 789 789 790 790 790 787 784 784 783 784 787 783 774 771 767 761 759 757 751 749 746 743 740 736 736 736 728 725 725 722 723 727 730 734 736 732 728 722 718 719 716 711 708 704 699 693 686 684 683 675 665 658 648 641 633 615 616 637 637 622 619 620 626 641 642 624 616 619 621 623 623 623 622 623 630 642 649 645 635
796 794 792 791 789 788 787 786 786 787 787 787 787 786 783 783 783 782 786 783 774 768 766 762 759 754 748 749 748 743 740 736 735 738 735 728 725 723 723 725 728 730 730 725 720 717 713 711 710 705 701 697 691 684 680 677 673 668 663 658 648 643 638 621 613 628 636 625 617 621 639 655 638 608 603 612 615 618 622 622 619 616 617 624 628 625 621
794 792 790 788 787 786 785 784 784 784 785 785 785 784 781 782 784 783 785 783 774 768 767 763 758 753 748 748 748 743 741 740 737 737 736 731 726 723 721 722 726 724 720 718 715 712 711 709 706 701 696 692 685 677 674 671 664 656 652 651 647 641 638 625 610 618 630 623 625 646 659 644 615 598 598 601 602 608 615 616 613 615 617 617 617 618 617
791 789 788 786 785 784 782 782 782 781 782 783 782 781 780 781 783 783 783 783 777 770 766 761 755 754 750 745 744 742 741 741 738 735 734 732 728 724 719 718 720 716 712 713 713 714 715 713 707 701 693 686 679 672 668 664 658 651 644 641 639 639 639 629 613 614 625 629 641 658 650 621 603 601 598 597 601 607 616 623 621 618 620 621 623 623 618
789 787 786 784 783 782 780 779 780 779 779 780 780 779 779 779 781 782 781 781 776 768 764 763 757 753 750 745 743 743 741 739 738 735 735 733 729 726 721 715 713 711 709 710 712 717 722 719 713 705 696 689 683 674 664 657 651 647 642 636 631 633 637 633 624 617 621 634 643 640 631 624 619 613 603 601 609 612 619 633 633 622 618 619 623 626 624
787 785 784 782 781 780 779 778 778 778 777 778 778 777 777 777 778 779 778 778 777 770 765 763 758 753 751 748 745 745 742 740 739 737 734 731 727 726 725 718 712 710 709 710 714 719 723 724 723 717 706 698 693 682 669 660 650 639 636 632 627 629 631 632 634 628 621 631 642 643 647 645 630 615 603 596 603 607 610 628 639 630 620 618 621 628 629
786 784 782 781 780 779 778 777 776 776 776 776 776 775 775 775 776 777 776 776 777 771 760 755 754 753 752 748 745 743 743 744 743 740 736 732 726 724 724 719 713 710 710 713 717 718 722 724 722 717 708 700 696 688 677 671 662 644 634 629 625 625 626 626 634 636 630 637 648 650 651 643 623 610 601 594 599 600 605 632 650 638 623 621 624 629 632
784 783 781 780 779 778 777 776 775 775 774 774 774 774 773 773 773 774 773 774 774 767 756 753 755 754 752 749 745 742 744 746 745 743 742 737 729 725 722 717 713 710 711 716 718 718 723 724 717 712 706 696 693 692 684 680 677 664 650 644 637 633 633 635 642 642 635 641 650 645 637 630 616 606 601 597 596 598 620 656 663 639 626 627 628 633 635
783 782 780 779 778 777 776 775 774 773 773 773 773 772 771 770 771 772 771 772 773 765 754 752 754 752 749 748 744 741 742 742 741 743 742 736 733 734 727 718 716 713 711 717 723 721 722 722 714 709 702 691 688 692 688 683 684 676 667 666 663 655 649 649 654 654 644 644 652 649 635 624 615 608 604 600 600 614 646 666 652 632 632 632 629 633 636
783 781 780 778 777 776 774 773 772 771 771 771 771 770 769 768 769 769 769 770 770 762 752 750 751 748 744 743 742 739 738 738 740 744 743 737 735 735 728 720 721 719 715 720 727 723 720 719 711 705 702 693 686 687 686 683 684 679 674 677 679 674 669 664 660 658 651 646 652 658 647 625 612 611 607 605 620 642 654 648 634 631 635 634 631 634 634
782 781 779 778 776 775 773 772 772 771 770 770 770 768 767 766 766 767 766 767 766 759 750 748 748 745 742 741 740 737 736 736 738 741 742 738 734 734 731 727 727 725 721 723 725 719 716 715 709 702 700 693 685 684 684 681 680 679 678 681 680 677 679 680 671 663 661 658 661 671 664 633 612 614 619 622 636 646 641 633 633 634 633 634 635 635 633
782 780 778 777 775 774 773 771 771 770 769 769 768 767 765 764 765 765 764 765 765 758 749 744 744 742 740 738 736 735 735 735 734 734 736 734 733 736 737 731 729 729 728 729 727 721 716 714 708 700 696 690 685 686 686 683 680 675 671 675 680 679 683 689 684 676 679 682 675 671 662 637 617 619 629 633 633 630 628 632 638 637 634 636 638 637 635
781 779 777 776 774 773 772 770 770 769 768 767 767 766 764 762 762 763 762 762 762 756 747 743 741 739 736 734 733 732 731 730 729 729 731 730 729 732 731 725 724 728 728 730 731 727 722 721 715 705 699 695 690 687 686 687 686 678 670 674 683 684 683 687 687 681 681 684 677 666 657 646 630 623 626 630 627 625 627 633 637 639 639 637 639 640 639
780 778 776 775 773 772 771 769 768 768 766 766 765 764 763 761 760 760 760 758 757 751 745 741 739 735 730 728 727 726 725 726 725 724 726 727 725 724 722 720 720 722 724 727 730 728 727 727 719 709 703 699 694 690 687 686 686 684 679 678 680 679 678 680 682 679 674 670 666 662 660 657 647 630 622 625 628 627 629 632 637 641 640 638 640 642 640
780 778 776 774 772 771 770 768 767 766 765 765 764 762 761 760 758 758 757 756 754 750 743 737 733 731 726 722 721 721 719 720 720 719 720 722 722 721 718 714 715 719 722 723 722 723 725 723 716 709 704 698 694 693 692 688 687 688 686 682 679 678 678 678 678 679 679 673 666 665 667 667 661 643 627 623 627 629 630 634 638 639 639 639 640 640 641
779 777 775 773 771 770 768 767 766 765 764 763 762 761 759 758 757 757 757 755 753 752 747 738 728 724 722 718 716 716 715 714 715 715 715 714 715 716 715 711 711 714 716 716 716 720 722 719 714 711 705 697 693 694 693 690 689 689 689 689 686 680 679 680 679 678 680 676 669 667 667 666 663 651 634 627 629 630 631 635 637 638 639 640 640 642 643
778 776 774 772 770 769 767 766 764 763 763 762 760 759 758 756 756 756 756 754 753 752 749 740 727 720 719 717 712 711 711 711 710 710 710 709 708 709 710 709 709 708 708 710 712 714 715 715 714 711 704 696 692 692 692 691 689 689 690 688 684 681 682 683 682 681 679 674 669 668 666 664 662 656 643 632 630 631 633 636 638 639 642 643 644 646 646
776 774 772 770 769 767 766 765 763 762 761 760 759 758 756 754 754 753 752 754 753 749 745 738 727 720 718 715 710 707 707 706 705 705 704 703 703 704 705 706 706 706 705 706 706 707 708 710 710 707 701 694 689 687 688 687 687 689 689 683 679 683 686 683 683 685 684 678 675 675 675 673 671 664 654 644 637 635 638 640 641 643 646 647 648 649 649
774 772 770 769 767 766 764 763 762 761 760 758 757 756 754 751 750 750 749 750 751 748 743 737 729 724 720 713 706 703 702 700 699 699 698 696 697 698 699 700 701 703 704 703 703 704 706 706 705 701 697 694 692 687 684 686 688 690 688 682 678 681 682 681 684 688 683 677 675 676 677 678 675 668 662 654 646 642 642 643 645 648 649 650 651 653 653
772 770 769 767 765 764 763 762 760 759 758 757 755 753 750 747 746 746 746 747 747 746 744 739 731 724 719 710 702 700 699 697 694 694 693 692 691 691 693 695 698 699 700 700 700 701 702 701 699 698 695 694 694 690 686 688 690 686 680 676 674 674 674 676 680 683 679 674 673 674 676 678 676 670 666 662 655 649 647 647 648 650 651 652 654 655 656
770 768 766 765 764 762 760 759 759 757 756 756 754 752 749 745 744 745 744 744 746 746 745 741 733 723 715 707 702 700 698 695 692 691 690 688 687 687 688 691 693 695 696 697 697 698 700 699 697 695 691 689 692 693 690 690 688 680 673 672 672 672 672 673 675 678 676 672 670 673 676 677 675 671 669 667 660 654 652 651 651 651 653 653 654 656 657
767 766 764 762 761 760 758 757 756 755 755 755 754 753 749 745 744 744 743 744 745 745 743 740 733 721 711 704 700 699 698 695 692 690 688 687 686 685 684 686 688 691 692 694 695 697 700 700 699 697 691 688 691 694 692 691 689 680 672 670 672 672 672 673 673 673 672 669 669 673 676 675 672 672 673 671 665 659 656 655 653 653 654 655 656 657 658
764 762 761 759 758 756 755 754 753 753 753 753 752 750 747 743 742 742 742 743 744 743 742 739 733 724 714 704 697 696 696 694 691 688 686 685 685 683 681 682 685 685 687 691 696 698 698 697 697 696 692 691 692 693 692 692 690 682 673 671 672 672 673 674 672 671 670 669 669 673 677 675 672 673 675 673 667 662 660 658 657 656 656 656 657 659 659
761 758 757 755 754 753 752 751 750 750 749 748 748 745 742 740 740 739 739 741 741 740 739 739 734 727 717 706 699 697 697 694 690 688 685 683 683 682 680 679 682 684 685 690 695 697 696 696 696 696 695 693 693 694 692 688 684 678 674 674 674 674 674 674 672 671 671 670 669 673 677 675 673 672 672 670 667 664 663 662 660 659 658 659 660 662 662
757 755 753 752 750 749 749 748 747 746 745 744 743 740 738 738 738 737 737 739 738 737 736 736 734 727 716 707 702 700 699 697 693 690 687 683 682 683 683 681 682 686 689 692 695 696 696 696 697 697 696 694 694 695 691 684 679 677 676 676 676 676 676 675 674 673 671 668 669 673 676 675 674 673 671 669 668 667 665 664 663 662 662 662 663 664 663
753 752 750 749 747 746 745 744 744 743 742 741 738 736 736 736 735 735 736 736 736 736 734 731 731 727 719 713 707 702 699 698 695 693 691 687 685 688 690 689 688 690 692 693 695 697 697 697 697 696 694 693 694 693 688 682 679 679 679 679 679 678 679 679 677 674 670 667 670 675 679 679 679 677 673 671 670 668 667 667 667 665 665 666 666 665 664
751 750 748 746 745 744 742 741 741 740 739 738 735 734 734 734 733 734 734 732 734 735 731 728 726 724 720 718 712 704 699 698 696 693 691 689 689 692 694 694 694 693 692 692 696 697 697 696 696 696 694 692 691 688 684 681 681 681 680 682 681 680 681 680 676 672 670 670 673 677 680 680 680 678 675 673 671 670 670 670 670 669 670 670 669 667 665
750 748 746 744 743 742 740 738 737 736 735 734 733 732 732 732 732 732 732 731 731 731 730 730 726 719 716 717 713 707 703 701 696 694 693 693 693 694 694 697 698 696 693 695 697 697 696 696 697 699 698 693 688 685 683 682 683 682 682 682 682 680 680 678 674 671 671 674 677 679 680 679 679 677 676 675 673 672 672 673 673 673 673 673 671 670 668
748 746 744 743 742 741 739 736 734 733 732 732 732 731 730 729 730 730 729 729 729 726 727 729 723 715 713 714 709 705 704 701 697 695 695 694 695 693 692 695 697 696 698 700 697 694 696 699 701 702 699 690 685 686 685 683 683 683 682 682 681 680 679 677 675 674 676 679 681 681 681 680 679 678 676 676 675 674 674 674 674 674 674 674 673 672 671
747 744 743 743 742 740 738 734 732 732 731 730 732 731 728 727 728 727 724 725 726 724 723 722 717 711 710 710 705 699 699 700 698 696 693 693 694 693 694 695 695 698 703 703 697 695 700 702 701 702 699 691 686 686 685 683 684 684 683 682 682 681 680 679 679 680 681 682 682 681 681 682 681 680 678 676 675 675 675 675 675 675 675 674 673 673 672
747 745 743 741 739 737 735 733 731 731 730 729 731 731 729 727 727 724 720 721 722 718 715 713 710 705 704 705 703 698 695 696 696 694 693 692 691 693 698 700 698 699 703 702 697 696 698 699 700 702 699 692 687 686 684 684 685 684 683 683 683 682 682 683 683 684 683 682 681 681 681 681 680 680 679 677 676 676 675 675 675 675 675 675 674 674 673
749 747 745 742 739 736 734 731 730 730 729 729 729 729 728 726 724 721 720 720 717 710 705 705 705 702 699 700 701 697 693 691 691 691 693 692 689 692 699 700 697 697 700 699 695 693 692 695 702 704 697 690 688 686 685 685 685 684 683 683 683 684 685 685 685 684 683 682 682 682 682 681 681 681 681 680 679 677 676 676 676 676 676 676 675 674 674
752 750 747 743 740 736 732 730 730 729 728 729 728 726 723 721 720 719 720 718 712 706 703 704 702 698 694 694 695 693 690 688 688 689 691 690 688 689 692 693 693 696 696 692 688 688 690 696 702 701 694 689 689 687 687 688 687 685 685 685 684 684 685 685 685 685 684 683 683 683 683 683 682 682 682 682 681 679 678 678 678 678 678 678 677 677 676
750 748 747 745 741 736 732 731 730 731 732 734 734 729 723 718 715 715 715 712 708 706 705 702 699 694 691 689 690 689 687 686 687 687 687 686 685 684 684 687 691 693 690 685 686 691 696 700 700 695 691 690 689 688 689 689 688 686 686 685 684 684 684 684 685 685 684 683 683 683 683 683 683 682 682 682 681 680 680 680 680 680 680 680 680 680 680
746 744 744 744 740 737 737 736 733 734 738 741 740 736 730 723 718 716 714 711 708 706 702 699 697 695 691 688 687 687 686 685 686 685 684 683 681 680 683 688 689 686 684 687 692 698 701 700 696 693 692 691 690 689 689 689 688 688 688 687 686 686 686 686 686 686 685 684 684 683 683 683 683 683 683 683 682 682 682 682 682 683 683 683 683 683 683
747 744 742 742 739 738 741 742 739 738 742 742 740 738 733 727 723 719 713 708 706 703 698 696 695 694 690 687 687 686 685 684 684 685 683 682 681 682 686 688 686 684 688 696 701 704 705 703 698 695 695 695 693 692 692 691 691 691 691 690 690 690 690 690 690 689 687 686 685 685 685 685 685 685 685 684 684 684 684 684 684 685 685 685 686 686 686
749 744 741 743 743 743 745 748 748 746 743 738 734 732 729 724 720 716 709 705 702 699 696 694 693 691 689 688 688 687 686 684 684 684 682 682 685 687 686 686 687 691 697 704 709 712 712 708 702 699 699 698 697 696 695 694 694 694 694 694 695 694 694 694 693 691 689 688 688 688 688 688 688 688 687 687 687 687 686 686 687 687 687 688 688 688 688
748 743 741 746 748 746 745 747 748 746 741 735 731 728 724 720 716 712 707 705 701 697 694 692 690 688 687 687 688 688 686 684 685 685 684 686 689 689 686 689 696 701 705 711 715 716 712 706 702 702 701 700 700 700 699 697 697 696 696 696 697 696 696 695 693 692 693 692 691 691 692 692 691 691 690 689 689 689 689 689 689 689 689 690 690 690 690
747 744 744 747 749 747 746 747 747 743 737 733 731 727 720 716 713 709 705 702 698 696 695 694 690 687 685 684 684 685 684 684 687 687 685 686 691 691 692 698 707 710 712 716 717 713 708 706 705 705 703 702 702 702 701 700 700 699 698 697 697 697 697 697 696 696 697 695 694 694 694 694 693 693 692 692 692 691 691 692 692 692 692 692 691 691 691
745 744 744 743 744 745 744 743 742 739 732 728 727 724 718 715 713 709 704 700 698 696 694 692 690 690 689 686 685 687 688 689 691 690 688 689 693 697 700 708 715 718 719 719 717 712 710 709 708 706 706 705 705 703 701 701 701 700 698 698 697 697 698 698 698 699 699 697 696 696 696 695 695 695 694 694 694 694 694 694 694 694 694 694 693 693 693
743 742 741 741 742 743 739 735 734 733 729 724 724 723 722 720 717 709 704 702 699 695 692 691 691 692 692 690 692 696 698 697 697 699 700 702 703 704 708 715 721 722 722 720 718 716 714 712 709 708 708 708 708 706 705 703 702 700 699 699 699 699 700 701 701 701 700 699 699 698 698 697 697 697 696 696 696 696 696 696 696 696 696 695 694 694 695
742 740 740 739 741 741 738 735 735 734 731 727 725 723 723 723 719 712 706 703 699 696 696 697 696 696 698 701 705 707 706 703 705 710 715 716 716 717 721 724 725 724 723 722 720 718 717 714 712 711 710 709 709 709 708 706 704 703 702 702 702 701 701 702 702 702 701 701 700 700 700 699 699 699 698 698 698 698 698 699 698 698 697 697 696 697 698
743 741 740 737 737 737 736 736 738 736 733 730 726 723 721 720 717 711 707 705 703 703 705 704 702 705 710 713 713 710 709 710 716 722 725 725 725 727 728 728 726 725 724 723 721 719 718 716 715 713 712 711 712 713 711 709 707 706 705 705 704 703 703 703 703 703 703 703 703 703 702 702 702 701 701 701 701 702 702 702 702 701 700 700 699 700 701